Regional Weather Roundup
Issued by NWS Portland, ME

Current Version | Previous Version | Text Only | Print | Product List | Glossary Off
Versions: 1 2 3 4 5 6 7 8 9 10 11 12 13 14 15 16 17 18 19 20 21 22 23 24 25 26 27 28 29 30 31 32 33 34 35 36 37 38 39 40 41 42 43 44 45 46 47 48 49 50
000 ASUS41 KGYX 102110 RWRGYX WEATHER ROUNDUP FOR MAINE AND NEW HAMPSHIRE NATIONAL WEATHER SERVICE GRAY ME 400 PM EST MON DEC 10 2018 MEZ002-005-006-010-012-015-018-020-021-024-026-027-029-102200- MAINE CITY SKY/WX TMP DP RH WIND PRES REMARKS PORTLAND FAIR 29 10 45 E6 30.12R SANFORD FAIR 29 13 51 W9 30.11R BAR HARBOR FAIR 23 7 50 N6 30.09R WISCASSET FAIR 25 6 44 NW3 30.13R ROCKLAND FAIR 24 7 48 VRB6 30.11R FRYEBURG FAIR 25 7 46 N5 30.10R LEWISTONAUBURN FAIR 25 9 50 N10 30.11R WCI 15 AUGUSTA FAIR 23 6 48 NW7 30.11R WATERVILLE FAIR 22 7 52 MISG 30.08R BANGOR FAIR 22 5 48 NW15 30.10R WCI 9 GREENVILLE N/A 13 3 64 NW18G25 30.00R WCI -4 MILLINOCKET FAIR 17 4 56 NW12 30.09R WCI 4 HOULTON CLOUDY 17 7 64 NW8 30.04R PRESQUE ISLE FLURRIES 14 9 80 NW9 30.06R FRENCHVILLE MOCLDY 14 2 58 NW13G21 30.01R WCI 0 CARIBOU CLOUDY 16 5 62 W9 30.03R $$ NHZ002-005-008-009-011-012-014-102200- NEW HAMPSHIRE CITY SKY/WX TMP DP RH WIND PRES REMARKS PORTSMOUTH CLEAR 30 9 41 W9 30.10R ROCHESTER FAIR 29 10 45 NW10 30.10R WCI 20 NASHUA FAIR 32 12 43 N7 30.11R MANCHESTER FAIR 33 10 38 NW10 30.10R CONCORD FAIR 29 11 47 NW9 30.11R LACONIA FAIR 26 11 52 W9 30.12R PLYMOUTH FAIR 25 11 55 NW7 30.13R BERLIN FAIR 18 5 57 NW5 30.10R WHITEFIELD FAIR 18 6 59 W3 30.12R JAFFREY FAIR 30 15 53 N6 30.07R KEENE FAIR 30 15 53 N7 30.12R LEBANON FAIR 29 9 43 NW6 30.13R MT WASHINGTON CLEAR 5 -9 51 NW45G59 N/A WCI -23 $$ VTZ005-007-008-102200- VERMONT CITY SKY/WX TMP DP RH WIND PRES REMARKS ST JOHNSBURY N/A 19 7 59 MISG 30.14R MONTPELIER FAIR 18 8 65 NW6 30.16R BURLINGTON FAIR 21 8 57 N6 30.20R $$ MAZ007-012-024-CTZ003-RIZ002-NYZ038-NYZ072-102200- SOUTHERN NEW ENGLAND AND NY CITY SKY/WX TMP DP RH WIND PRES REMARKS BOSTON FAIR 37 11 34 NW12 30.11R WORCESTER FAIR 31 15 52 NW8 30.06R NANTUCKET MOCLDY 36 23 59 N14 30.08R PROVIDENCE FAIR 36 16 44 N6 30.11R HARTFORD FAIR 35 16 45 NW10 30.11R ALBANY MOCLDY 35 15 44 W10 30.15S NEW YORK CITY FAIR 39 18 42 N13 30.12R $$ ANZ081-ANZ082-ANZ150-NHZ014-MEZ023>029-102200- COASTAL MARINE OBSERVATIONS STATION/POSITION TIME TEMP WIND PRES WAVE AIR SEA DIR/SP/G HT/PER (UTC) (F) (DEG/KT/KT) (MB) (FT/S) MOUNT DESERT ROC 2100 27 300/ 19/ 21 1018.3R MATINICUS ROCK 2000 28 330/ 14/ 16 1018.2R ISLE OF SHOALS 2000 34 300/ 11/ 14 1018.6R JEFFREYS LEDGE 2008 47 N/A 3/ 5 CASHES LEDGE BUO 2050 30 47 1019.2R 4/ 5 $$ .............KEY.............. WCI - WIND CHILL TC - TEMPERATURE IN CELSIUS VSB - VISIBILITY IN MILES HX - HEAT INDEX FAIR- INDICATES FEW OR NO CLOUDS BELOW 12,000 FT, WITH NO SIGNIFICANT WEATHER AND/OR OBSTRUCTIONS TO VISIBILITY.

USA.gov is the U.S. government's official web portal to all federal, state and local government web resources and services.